Location: Unspecified
(41.1637°N, 24.2901°E)
Time: 16:18:38
(UTC+01:00)

ISS - Pass Details

Date: 10 March 2026
Orbit: 417 x 426 km, 51.6° (Epoch: 16 March)

Event Time Altitude Azimuth Distance (km) Brightness Sun altitude
Rises 18:51:49 0° 217° (SW) 2,369 0.4 -17.3°
Reaches altitude 10° 18:53:58 10° 209° (SSW) 1,506 -0.7 -17.7°
Enters shadow 18:56:40 38° 163° (SSE) 660 -3.0 -18.2°
